AAL2979 KORD-KATL

Flight info

Callsign AAL2979
Flight time N/A
Altitude 36000
Route CMSKY CARYN CYBIL PXV/N0456F350 HITMN NEWBB IHAVE MTHEW CHPPR1
Aircraft A320/M-SDE3FGHIRWY/LB1

Departure

Time 2026-05-06 21:50
Airport Chicago O'Hare International Airport (KORD)

Arrival

Time N/A
Airport Hartsfield Jackson Atlanta International Airport (KATL)
Time Latitude Longitude Altitude Speed Heading
2026-05-06 21:29 41.97522 -87.89838 658 ft 0 kts 221°
2026-05-06 21:41 41.97524 -87.89836 658 ft 1 kts 221°
2026-05-06 21:42 41.97535 -87.89824 658 ft 2 kts 220°
2026-05-06 21:42 41.97545 -87.89811 658 ft 0 kts 221°
2026-05-06 21:42 41.97553 -87.89803 658 ft 2 kts 193°
2026-05-06 21:42 41.97567 -87.89806 658 ft 2 kts 143°
2026-05-06 21:43 41.97575 -87.89817 658 ft 0 kts 108°
2026-05-06 21:43 41.97576 -87.89827 658 ft 1 kts 103°
2026-05-06 21:43 41.97576 -87.89828 658 ft 0 kts 103°
2026-05-06 21:45 41.97574 -87.89814 658 ft 5 kts 103°
2026-05-06 21:45 41.97551 -87.89726 656 ft 14 kts 111°
2026-05-06 21:46 41.97511 -87.89593 655 ft 15 kts 111°
2026-05-06 21:46 41.97480 -87.89457 654 ft 15 kts 97°
2026-05-06 21:46 41.97439 -87.89337 653 ft 14 kts 164°
2026-05-06 21:46 41.97345 -87.89323 654 ft 12 kts 181°
2026-05-06 21:47 41.97260 -87.89332 655 ft 12 kts 179°
2026-05-06 21:47 41.97202 -87.89281 655 ft 11 kts 112°
2026-05-06 21:47 41.97189 -87.89153 654 ft 20 kts 90°
2026-05-06 21:47 41.97192 -87.88960 654 ft 20 kts 89°
2026-05-06 21:48 41.97195 -87.88775 654 ft 19 kts 88°
2026-05-06 21:48 41.97193 -87.88593 654 ft 18 kts 91°
2026-05-06 21:48 41.97176 -87.88423 655 ft 17 kts 104°
2026-05-06 21:48 41.97166 -87.88258 653 ft 18 kts 88°
2026-05-06 21:49 41.97168 -87.88082 652 ft 18 kts 104°
2026-05-06 21:49 41.97063 -87.88030 652 ft 16 kts 184°
2026-05-06 21:49 41.96950 -87.88049 652 ft 15 kts 194°
2026-05-06 21:49 41.96824 -87.88182 655 ft 51 kts 221°
2026-05-06 21:50 41.96361 -87.88727 655 ft 122 kts 220°
2026-05-06 21:50 41.95603 -87.89619 930 ft 153 kts 225°
2026-05-06 21:50 41.94803 -87.90491 1635 ft 153 kts 226°
2026-05-06 21:50 41.93956 -87.91380 2180 ft 159 kts 224°
2026-05-06 21:51 41.93058 -87.92324 2592 ft 169 kts 224°
2026-05-06 21:51 41.92084 -87.93240 3052 ft 179 kts 215°
2026-05-06 21:51 41.90929 -87.93967 3505 ft 191 kts 207°
2026-05-06 21:51 41.89656 -87.94700 3879 ft 206 kts 209°
2026-05-06 21:52 41.88269 -87.95397 4254 ft 227 kts 197°
2026-05-06 21:52 41.86583 -87.95619 4500 ft 258 kts 180°
2026-05-06 21:52 41.84701 -87.95348 4802 ft 284 kts 174°
2026-05-06 21:52 41.82766 -87.94813 5592 ft 288 kts 170°
2026-05-06 21:53 41.80838 -87.94235 6587 ft 283 kts 171°
2026-05-06 21:53 41.78908 -87.93740 7416 ft 284 kts 174°
2026-05-06 21:53 41.76981 -87.93325 8182 ft 286 kts 175°
2026-05-06 21:53 41.75010 -87.92956 8954 ft 287 kts 176°
2026-05-06 21:54 41.73045 -87.92620 9687 ft 289 kts 177°
2026-05-06 21:54 41.71029 -87.92293 10390 ft 292 kts 178°
2026-05-06 21:54 41.68964 -87.91969 10754 ft 306 kts 179°
2026-05-06 21:54 41.66816 -87.91643 11042 ft 322 kts 179°
2026-05-06 21:55 41.64533 -87.91299 11368 ft 335 kts 179°
2026-05-06 21:55 41.62194 -87.90937 11957 ft 339 kts 179°
2026-05-06 21:55 41.59878 -87.90576 12622 ft 339 kts 179°
2026-05-06 21:55 41.57523 -87.90210 13229 ft 341 kts 180°
2026-05-06 21:56 41.55149 -87.89844 13810 ft 344 kts 181°
2026-05-06 21:56 41.52793 -87.89484 14378 ft 346 kts 181°
2026-05-06 21:56 41.50385 -87.89123 14923 ft 349 kts 181°
2026-05-06 21:56 41.47960 -87.88756 15504 ft 351 kts 181°
2026-05-06 21:57 41.45549 -87.88390 16018 ft 354 kts 181°
2026-05-06 21:57 41.43091 -87.88057 16588 ft 353 kts 184°
2026-05-06 21:57 41.40636 -87.87924 17086 ft 352 kts 188°
2026-05-06 21:57 41.38225 -87.88019 17609 ft 349 kts 192°
2026-05-06 21:58 41.35791 -87.88245 18115 ft 351 kts 192°
2026-05-06 21:58 41.33373 -87.88469 18570 ft 354 kts 192°
2026-05-06 21:58 41.30907 -87.88694 19068 ft 355 kts 193°
2026-05-06 21:58 41.28429 -87.88924 19531 ft 357 kts 193°
2026-05-06 21:59 41.25967 -87.89140 19972 ft 361 kts 192°
2026-05-06 21:59 41.23438 -87.89195 20454 ft 365 kts 188°
2026-05-06 21:59 41.20879 -87.89124 20872 ft 368 kts 189°
2026-05-06 21:59 41.18335 -87.89050 21242 ft 372 kts 189°
2026-05-06 22:00 41.15726 -87.88975 21588 ft 376 kts 189°
2026-05-06 22:00 41.13098 -87.88899 22009 ft 377 kts 188°
2026-05-06 22:00 41.10501 -87.88816 22475 ft 378 kts 189°
2026-05-06 22:00 41.07856 -87.88737 22823 ft 381 kts 189°
2026-05-06 22:01 41.05185 -87.88660 23172 ft 384 kts 189°
2026-05-06 22:01 41.02544 -87.88579 23624 ft 384 kts 189°
2026-05-06 22:01 40.99862 -87.88493 23968 ft 386 kts 191°
2026-05-06 22:01 40.97166 -87.88411 24329 ft 387 kts 190°
2026-05-06 22:02 40.94496 -87.88329 24684 ft 388 kts 191°
2026-05-06 22:02 40.91782 -87.88245 25013 ft 388 kts 191°
2026-05-06 22:02 40.89103 -87.88162 25349 ft 389 kts 192°
2026-05-06 22:02 40.86388 -87.88077 25737 ft 388 kts 192°
2026-05-06 22:03 40.83680 -87.87995 26091 ft 388 kts 193°
2026-05-06 22:03 40.80998 -87.87914 26334 ft 391 kts 193°
2026-05-06 22:03 40.78270 -87.87836 26676 ft 391 kts 194°
2026-05-06 22:03 40.75545 -87.87753 27049 ft 390 kts 193°
2026-05-06 22:04 40.72864 -87.87667 27396 ft 390 kts 194°
2026-05-06 22:04 40.70137 -87.87588 27669 ft 392 kts 195°
2026-05-06 22:04 40.67398 -87.87508 27909 ft 394 kts 194°
2026-05-06 22:04 40.64691 -87.87427 28260 ft 393 kts 195°
2026-05-06 22:05 40.61949 -87.87344 28529 ft 394 kts 195°
2026-05-06 22:05 40.59208 -87.87264 28900 ft 392 kts 196°
2026-05-06 22:05 40.56522 -87.87179 29246 ft 390 kts 196°
2026-05-06 22:05 40.53795 -87.87098 29486 ft 391 kts 196°
2026-05-06 22:06 40.51066 -87.87019 29770 ft 391 kts 197°
2026-05-06 22:06 40.48380 -87.86936 30067 ft 390 kts 196°
2026-05-06 22:06 40.45660 -87.86857 30358 ft 389 kts 197°
2026-05-06 22:06 40.42953 -87.86775 30678 ft 387 kts 197°
2026-05-06 22:07 40.40298 -87.86692 30996 ft 385 kts 197°
2026-05-06 22:07 40.37609 -87.86613 31207 ft 386 kts 197°
2026-05-06 22:07 40.34919 -87.86539 31491 ft 385 kts 197°
2026-05-06 22:07 40.32275 -87.86457 31734 ft 384 kts 197°
2026-05-06 22:08 40.29590 -87.86362 31977 ft 385 kts 197°
2026-05-06 22:08 40.26905 -87.86240 32244 ft 384 kts 197°
2026-05-06 22:08 40.24271 -87.86124 32557 ft 382 kts 197°
2026-05-06 22:08 40.21610 -87.85999 32777 ft 382 kts 197°
2026-05-06 22:09 40.18941 -87.85886 32963 ft 382 kts 197°
2026-05-06 22:09 40.16319 -87.85764 33255 ft 380 kts 197°
2026-05-06 22:09 40.13669 -87.85645 33455 ft 380 kts 198°
2026-05-06 22:09 40.11053 -87.85534 33645 ft 380 kts 198°
2026-05-06 22:10 40.08396 -87.85420 33818 ft 381 kts 198°
2026-05-06 22:10 40.05736 -87.85304 34005 ft 381 kts 198°
2026-05-06 22:10 40.03118 -87.85191 34258 ft 380 kts 198°
2026-05-06 22:10 40.00470 -87.85070 34433 ft 380 kts 198°
2026-05-06 22:11 39.95170 -87.84849 34663 ft 384 kts 198°
2026-05-06 22:11 39.92487 -87.84729 34798 ft 385 kts 198°
2026-05-06 22:11 39.89789 -87.84616 34930 ft 386 kts 197°
2026-05-06 22:12 39.87133 -87.84499 35134 ft 386 kts 198°
2026-05-06 22:12 39.84430 -87.84380 35255 ft 388 kts 198°
2026-05-06 22:12 39.79030 -87.84147 35473 ft 391 kts 197°
2026-05-06 22:13 39.76299 -87.84028 35628 ft 392 kts 197°
2026-05-06 22:13 39.73560 -87.83908 35773 ft 393 kts 197°
2026-05-06 22:13 39.70850 -87.83791 36057 ft 395 kts 197°
2026-05-06 22:13 39.68098 -87.83669 36021 ft 395 kts 198°
2026-05-06 22:14 39.62621 -87.83430 35995 ft 396 kts 197°
2026-05-06 22:14 39.57137 -87.83189 35992 ft 394 kts 197°
2026-05-06 22:15 39.51651 -87.82948 35989 ft 394 kts 198°
2026-05-06 22:15 39.46207 -87.82714 35979 ft 394 kts 197°
2026-05-06 22:16 39.40751 -87.82482 35994 ft 393 kts 198°
2026-05-06 22:16 39.35272 -87.82244 35988 ft 393 kts 197°
2026-05-06 22:17 39.29851 -87.82010 35991 ft 390 kts 198°
2026-05-06 22:17 39.24420 -87.81780 35999 ft 391 kts 198°
2026-05-06 22:18 39.18944 -87.81544 35991 ft 393 kts 197°
2026-05-06 22:18 39.13515 -87.81313 36001 ft 392 kts 197°
2026-05-06 22:19 39.08080 -87.81080 36004 ft 393 kts 198°
2026-05-06 22:19 39.02576 -87.80849 36006 ft 395 kts 198°
2026-05-06 22:20 38.97110 -87.80615 36008 ft 394 kts 197°
2026-05-06 22:20 38.91663 -87.80380 36002 ft 392 kts 198°
2026-05-06 22:21 38.86196 -87.80149 36004 ft 392 kts 197°
2026-05-06 22:21 38.80756 -87.79923 35995 ft 393 kts 197°
2026-05-06 22:22 38.75320 -87.79692 36002 ft 392 kts 198°
2026-05-06 22:22 38.69896 -87.79462 36021 ft 391 kts 198°
2026-05-06 22:23 38.64457 -87.79236 36022 ft 388 kts 198°
2026-05-06 22:23 38.59077 -87.79008 36025 ft 389 kts 197°
2026-05-06 22:24 38.53682 -87.78781 36016 ft 391 kts 198°
2026-05-06 22:24 38.48220 -87.78558 36011 ft 392 kts 197°
2026-05-06 22:25 38.42779 -87.78329 36009 ft 393 kts 197°
2026-05-06 22:25 38.37320 -87.78097 36001 ft 395 kts 197°
2026-05-06 22:26 38.31826 -87.77866 36000 ft 392 kts 197°
2026-05-06 22:26 38.26386 -87.77637 36005 ft 392 kts 197°
2026-05-06 22:27 38.20934 -87.77408 36003 ft 395 kts 197°
2026-05-06 22:27 38.15453 -87.77183 36004 ft 393 kts 197°
2026-05-06 22:28 38.09987 -87.76947 36008 ft 393 kts 197°
2026-05-06 22:28 38.04510 -87.76730 36003 ft 396 kts 197°
2026-05-06 22:29 37.98976 -87.76317 36006 ft 407 kts 192°
2026-05-06 22:29 37.93297 -87.75050 36006 ft 421 kts 185°
2026-05-06 22:30 37.90464 -87.74066 36010 ft 432 kts 181°
2026-05-06 22:30 37.87575 -87.72806 36011 ft 442 kts 177°
2026-05-06 22:30 37.84738 -87.71293 36012 ft 453 kts 173°
2026-05-06 22:30 37.81887 -87.69557 36009 ft 455 kts 172°
2026-05-06 22:31 37.76207 -87.66049 36009 ft 455 kts 172°
2026-05-06 22:31 37.70490 -87.62525 36011 ft 456 kts 172°
2026-05-06 22:32 37.64810 -87.59038 36002 ft 455 kts 172°
2026-05-06 22:32 37.59123 -87.55555 35998 ft 455 kts 172°
2026-05-06 22:33 37.53410 -87.52062 35992 ft 457 kts 172°
2026-05-06 22:33 37.47687 -87.48581 35986 ft 458 kts 172°
2026-05-06 22:34 37.41976 -87.45096 35989 ft 456 kts 172°
2026-05-06 22:34 37.36267 -87.41628 35988 ft 458 kts 171°
2026-05-06 22:35 37.30503 -87.38132 35987 ft 457 kts 171°
2026-05-06 22:35 37.24788 -87.34668 35987 ft 460 kts 172°
2026-05-06 22:36 37.19055 -87.31203 35988 ft 457 kts 172°
2026-05-06 22:36 37.13327 -87.27737 35989 ft 454 kts 172°
2026-05-06 22:37 37.07635 -87.24313 35984 ft 457 kts 172°
2026-05-06 22:37 37.01911 -87.20874 35988 ft 458 kts 172°
2026-05-06 22:38 36.96169 -87.17424 35981 ft 459 kts 172°
2026-05-06 22:38 36.90411 -87.13966 35979 ft 458 kts 172°
2026-05-06 22:39 36.84669 -87.10533 35972 ft 459 kts 172°
2026-05-06 22:39 36.78904 -87.07091 35978 ft 462 kts 171°
2026-05-06 22:40 36.73085 -87.03619 35977 ft 463 kts 171°
2026-05-06 22:40 36.67298 -87.00168 35972 ft 461 kts 171°
2026-05-06 22:41 36.58646 -86.95023 35974 ft 463 kts 171°
2026-05-06 22:42 36.52808 -86.91562 35970 ft 463 kts 171°
2026-05-06 22:42 36.47006 -86.88129 35967 ft 463 kts 171°
2026-05-06 22:43 36.41200 -86.84693 35980 ft 465 kts 171°
2026-05-06 22:43 36.35385 -86.81262 35982 ft 464 kts 171°
2026-05-06 22:44 36.29535 -86.77810 35982 ft 463 kts 171°
2026-05-06 22:44 36.23703 -86.74383 35987 ft 466 kts 171°
2026-05-06 22:45 36.17862 -86.70948 35987 ft 466 kts 171°
2026-05-06 22:45 36.12056 -86.67362 35987 ft 473 kts 166°